Погода в Пассикуде

Шри-Ланка     7°55′48″N   81°33′32″E
темп.,
°C
ветер,
м/с
пор.,
м/с
влажн.,
%
обл.,
%
осадки,
мм/ч
давл.,
гПа
погр.,
м
20 апреля, вт
вт2023:30+27св117779 1.0 1010106
02:30+26ссз2280100 0.0 1009207
05:30+25сз128399 0.0 1009162
08:30+28ю01725 0.0 1011420
11:30+31в32605 0.0 10101002
14:30+31в64635 0.0 1007757
17:30+29вюв56705 0.0 1007414
20:30+28юв477822 0.3 1009320
21 апреля, ср
ср2123:30+26ююв3383100 1.6 1010273
02:30+26ююз1183100 0.7 100990
05:30+25юз218755 0.7 1010124
08:30+28зюз117324 0.0 1012364
11:30+31всв32625 0.0 10111053
14:30+31в546130 0.0 1008687
17:30+29в566717 0.0 1008481
20:30+28ююв35765 0.3 1011422
22 апреля, чт
чт2223:30+27ююз01775 0.3 1011152
02:30+26зсз228131 0.1 1009138
05:30+25сз3486100 0.1 1010185
08:30+28зсз227182 0.0 1012431
11:30+32св2356100 0.0 10111048
14:30+30в5462100 0.0 1008659
17:30+29в456960 0.0 1008447
20:30+28ююв347683 0.1 1011328
23 апреля, пт
пт2323:30+27всв017789 0.8 101161
02:30+26сз348286 0.1 1009229
05:30+25зсз238873 0.1 1010151
08:30+28зюз227365 0.0 1012453
11:30+32юв23565 0.0 10101111
14:30+32в555791 0.0 1007879
17:30+29вюв677299 0.0 1007330
20:30+27юв35795 0.6 1010207
24 апреля, сб
сб2423:30+27зсз128097 0.8 1011124
02:30+26сз348336 0.4 1009256
05:30+25зсз2288100 0.4 1010158
08:30+28зюз11714 0.0 1011474
11:30+32вюв32586 0.0 10101009
14:30+32в645823 0.0 1007896
17:30+29вюв687245 0.0 1007440
20:30+27юв46795 0.2 1010380